Weather History for St. Joseph, MO

Change the Weather History Date:

Monday, July 8, 2013

  Actual Average Record
Temperature  
Mean Temperature 84 °F 77 °F  
Max Temperature 93 °F 87 °F 101 °F (1990)
Min Temperature 75 °F 67 °F 56 °F (1952)
Degree Days  
Heating Degree Days 0 0  
Month to date heating degree days 0 0  
Since 1 June heating degree days 15 8  
Since 1 July heating degree days 0 0  
Cooling Degree Days 19 12  
Month to date cooling degree days 86 94  
Year to date cooling degree days 487 474  
Since 1 June cooling degree days 361 361  
Growing Degree Days 33 (Base 50)    
Moisture  
Dew Point 69 °F    
Average Humidity 65    
Maximum Humidity 82    
Minimum Humidity 47    
Precipitation  
Precipitation T in 0.15 in 0.94 in (1933)
Month to date precipitation 0.06 1.17  
Year to date precipitation 16.20 18.30  
Sea Level Pressure  
Sea Level Pressure 29.95 in    
Wind  
Wind Speed 8 mph (South)    
Max Wind Speed 16 mph    
Max Gust Speed 22 mph    
Visibility 10 miles    
Events      
T = Trace of Precipitation, MM = Missing Value Source: NWS Daily Summary

Daily Weather History Graph

Daily Weather History Graph

Search for Another Location

Airport:

Trip Planner

Search our weather history database for the weather conditions in past years. The results will help you decide how hot, cold, wet, or windy it might be!

Date:

Astronomy

Jul. 08, 2013 Rise Set
Actual Time 5:59 AM CDT 8:49 PM CDT
Civil Twilight 5:27 AM CDT 9:21 PM CDT
Nautical Twilight 4:46 AM CDT 10:02 PM CDT
Astronomical Twilight 4:00 AM CDT 10:48 PM CDT
Moon 6:29 AM CDT (7/8) 8:53 PM CDT (7/8)
Length of Visible Light 15h 54m
Length of Day
14h 50m
New Moon, 0% of the Moon is Illuminated
Jul 8
New Moon
Jul 15
First Quarter
Jul 22
Full
Jul 29
Last Quarter
Aug 6
New

Hourly Weather History & Observations

Time (CDT) Temp. Heat Index Dew Point Humidity Pressure Visibility Wind Dir Wind Speed Gust Speed Precip Events Conditions
12:53 AM 82.9 °F 84.0 °F 63.0 °F 51% 29.93 in 10.0 mi SSW 9.2 mph - N/A   Clear
1:53 AM 82.0 °F 83.0 °F 62.1 °F 51% 29.93 in 10.0 mi SSW 11.5 mph 20.7 mph N/A   Partly Cloudy
2:53 AM 81.0 °F 81.9 °F 62.1 °F 52% 29.92 in 10.0 mi SSW 11.5 mph - N/A   Partly Cloudy
3:53 AM 81.0 °F 82.2 °F 63.0 °F 54% 29.94 in 10.0 mi SSW 10.4 mph - N/A   Mostly Cloudy
4:53 AM 78.1 °F - 66.9 °F 68% 29.92 in 10.0 mi SSW 10.4 mph - N/A   Overcast
5:53 AM 75.9 °F - 69.1 °F 79% 29.93 in 10.0 mi SSW 6.9 mph - 0.00 in   Clear
6:53 AM 75.9 °F - 68.0 °F 76% 29.95 in 10.0 mi Calm Calm - N/A   Clear
7:53 AM 77.0 °F - 69.1 °F 76% 29.96 in 10.0 mi SW 3.5 mph - N/A   Clear
8:53 AM 79.0 °F - 69.1 °F 72% 29.97 in 10.0 mi SSW 4.6 mph - N/A   Clear
9:53 AM 81.0 °F 84.4 °F 70.0 °F 69% 29.98 in 10.0 mi SW 5.8 mph - N/A   Clear
10:53 AM 86.0 °F 90.7 °F 70.0 °F 59% 29.98 in 10.0 mi SSW 15.0 mph - N/A   Clear
11:53 AM 87.1 °F 92.0 °F 70.0 °F 57% 29.98 in 10.0 mi SSW 8.1 mph - N/A   Clear
12:53 PM 90.0 °F 94.5 °F 69.1 °F 50% 29.97 in 10.0 mi SW 11.5 mph 18.4 mph N/A   Clear
1:53 PM 91.0 °F 96.6 °F 70.0 °F 50% 29.96 in 10.0 mi SSW 9.2 mph - N/A   Clear
2:53 PM 91.0 °F 95.2 °F 68.0 °F 47% 29.96 in 10.0 mi SW 6.9 mph - N/A   Partly Cloudy
3:53 PM 88.0 °F 94.7 °F 72.0 °F 59% 29.95 in 10.0 mi South 5.8 mph - N/A   Clear
4:53 PM 91.9 °F 99.5 °F 72.0 °F 52% 29.94 in 10.0 mi South 11.5 mph 21.9 mph 0.00 in   Clear
5:53 PM 91.9 °F 99.5 °F 72.0 °F 52% 29.94 in 10.0 mi South 9.2 mph 17.3 mph N/A   Clear
6:53 PM 91.0 °F 97.6 °F 71.1 °F 52% 29.93 in 10.0 mi SSE 9.2 mph - N/A   Clear
7:53 PM 89.1 °F 96.0 °F 72.0 °F 57% 29.92 in 10.0 mi SE 8.1 mph - N/A   Clear
8:53 PM 86.0 °F 92.2 °F 72.0 °F 63% 29.93 in 10.0 mi SE 8.1 mph - N/A   Clear
9:53 PM 84.9 °F 89.4 °F 70.0 °F 61% 29.94 in 10.0 mi SSE 9.2 mph - N/A   Clear
10:53 PM 81.0 °F 84.4 °F 70.0 °F 69% 29.96 in 10.0 mi South 6.9 mph - N/A   Clear
11:53 PM 82.0 °F 84.9 °F 68.0 °F 62% 29.94 in 10.0 mi South 8.1 mph - N/A   Clear